User: anonymous   Login
Location: Unspecified
(0.0000°N, 0.0000°E)
Time: 18:53:34
(UTC+00:00)
Language:

BIROS - Orbit

View from above orbital plane
View from above orbital plane
View from above satellite
View from above satellite

Ground track
Ground track

The orbit data is extracted from the following two-line orbital elements,

1 41604U 16040F   17084.74886043 +.00000855 +00000-0 +42416-4 0  9995
2 41604 097.4716 147.9153 0012684 006.7122 353.4281 15.20368979042002
Epoch (UTC): 25 March 2017 17:58:21
Eccentricity: 0.0012684
inclination: 97.4716°
perigee height: 496 km
apogee height: 513 km
right ascension of ascending node: 147.9153°
argument of perigee: 6.7122°
revolutions per day: 15.20368979
mean anomaly at epoch: 353.4281°
orbit number at epoch: 4200

The dashed part of the orbit path shows where the satellite is in the earth's shadow,  

DLR